Zurück zum Katalog

DIRECTV 1R

AktivKommunikationGEO
NORAD 25937·PAYLOAD·🇺🇸 United States

Gestartet Oct 10, 1999 von Sea Launch Platform

Loading…

TLE

AktuellSource: Space-Track

Epoche: Sep 14, 2026, 06:47 UTC

1 25937U 99056A   26257.28305101 -.00000245  00000-0  00000-0 0  9999
2 25937  10.8523  47.6555 0004184 209.3283 163.3010  0.98962333 98108

Verfolge DIRECTV 1R in Echtzeit mit AllMySat

Download on the App Store